EW8839 Weather Reports


time (UTC)temp
F
wind
direction
speed
knots
gust
knots
rain 1hr
in
rain 24hr
in
rain mn
in
humidity
%
barometer
mb
20260506202045 68 192 1.7 9.6 0.00 0.00 0.00 78 1005.7
20260506201630 68 177 0.0 6.1 0.00 0.00 0.00 77 1005.6
20260506201101 68 204 0.0 4.3 0.00 0.00 0.00 78 1005.7
20260506200515 68 169 0.0 5.2 0.00 0.00 0.00 79 1005.8
20260506200032 68 163 0.0 5.2 0.00 0.00 0.00 79 1005.8
20260506195548 68 228 0.0 7.8 0.00 0.00 0.00 79 1005.9
20260506195101 67 206 0.0 15.6 0.00 0.00 0.00 80 1006.0
20260506194603 67 191 0.0 15.6 0.00 0.00 0.00 80 1006.1
20260506194000 67 157 0.9 14.8 0.00 0.00 0.00 80 1006.2
20260506193516 67 167 0.0 14.8 0.00 0.00 0.00 80 1006.3
20260506193042 67 227 2.6 13.9 0.00 0.00 0.00 80 1006.2
20260506192548 67 135 1.7 7.8 0.00 0.00 0.00 80 1006.3
20260506192001 67 211 1.7 8.7 0.00 0.00 0.00 81 1006.3
20260506191505 67 133 1.7 10.4 0.00 0.00 0.00 81 1006.3
20260506191001 67 159 0.9 8.7 0.00 0.00 0.00 81 1006.4
20260506190604 67 150 0.0 8.7 0.00 0.00 0.00 81 1006.4
20260506190016 67 121 0.0 14.8 0.00 0.00 0.00 80 1006.4
20260506185531 66 131 1.7 14.8 0.00 0.00 0.00 80 1006.4
20260506185046 66 217 0.9 8.7 0.00 0.00 0.00 80 1006.5
20260506184606 66 207 2.6 9.6 0.00 0.00 0.00 80 1006.5
20260506184103 66 202 1.7 13.0 0.00 0.00 0.00 80 1006.5
20260506183603 66 151 0.9 10.4 0.00 0.00 0.00 80 1006.7
20260506183014 66 105 0.0 7.0 0.00 0.00 0.00 81 1006.8
20260506182531 66 98 0.9 7.0 0.00 0.00 0.00 81 1006.8
20260506182048 66 179 0.9 15.6 0.00 0.00 0.00 80 1006.7
20260506181549 67 80 2.6 15.6 0.00 0.00 0.00 78 1006.7
20260506181049 67 157 0.0 8.7 0.00 0.00 0.00 78 1006.7
20260506180502 67 139 2.6 9.6 0.00 0.00 0.00 77 1006.7
20260506180018 67 173 1.7 9.6 0.00 0.00 0.00 77 1006.8
20260506175536 67 117 0.0 7.8 0.00 0.00 0.00 77 1006.8
20260506175051 67 183 2.6 17.4 0.00 0.00 0.00 77 1006.9
20260506174604 67 121 0.9 14.8 0.00 0.00 0.00 76 1007.0
20260506174002 67 130 1.7 17.4 0.00 0.00 0.00 76 1007.1
20260506173520 68 107 3.5 12.2 0.00 0.00 0.00 75 1007.2
20260506173035 68 125 1.7 7.0 0.00 0.00 0.00 76 1006.9
20260506172546 68 104 1.7 14.8 0.00 0.00 0.00 75 1006.9
20260506172104 68 168 4.3 13.9 0.00 0.00 0.00 75 1007.1
20260506171603 68 107 1.7 13.0 0.00 0.00 0.00 75 1007.1
20260506171001 68 142 0.0 8.7 0.00 0.00 0.00 76 1007.2
20260506170517 68 104 1.7 8.7 0.00 0.00 0.00 76 1007.2
20260506170030 68 117 2.6 8.7 0.00 0.00 0.00 75 1007.4
20260506165548 68 179 1.7 9.6 0.00 0.00 0.00 76 1007.2
20260506165103 69 163 1.7 13.0 0.00 0.00 0.00 77 1007.1
20260506164604 69 179 3.5 13.0 0.00 0.00 0.00 77 1007.3
20260506164103 69 123 0.9 7.0 0.00 0.00 0.00 77 1007.5
20260506163520 69 103 0.9 8.7 0.00 0.00 0.00 73 1007.5
20260506163041 69 180 1.7 9.6 0.00 0.00 0.00 72 1007.7
20260506162546 69 123 2.6 9.6 0.00 0.00 0.00 72 1007.8
20260506162059 69 223 2.6 5.2 0.00 0.00 0.00 72 1008.1
20260506161604 69 230 0.0 7.0 0.00 0.00 0.00 72 1008.2
20260506161011 69 111 0.0 8.7 0.00 0.00 0.00 72 1008.4
20260506160532 69 157 0.9 8.7 0.00 0.00 0.00 71 1008.4
20260506160043 69 220 2.6 8.7 0.00 0.00 0.00 70 1008.5
20260506155600 69 176 0.9 12.2 0.00 0.00 0.00 71 1008.3
20260506155058 69 159 0.0 12.2 0.00 0.00 0.00 70 1008.4
20260506154607 69 103 0.0 7.8 0.00 0.00 0.00 71 1008.4
20260506154017 69 154 0.9 9.6 0.00 0.00 0.00 70 1008.4
20260506153525 69 169 0.9 7.8 0.00 0.00 0.00 69 1008.3
20260506153042 69 96 0.9 5.2 0.00 0.00 0.00 69 1008.3
20260506152556 69 155 0.9 15.6 0.00 0.00 0.00 68 1008.4
20260506152058 69 204 2.6 15.6 0.00 0.00 0.00 69 1008.4
20260506151601 69 169 0.9 12.2 0.00 0.00 0.00 68 1008.5
20260506151012 70 209 0.0 12.2 0.00 0.00 0.00 68 1008.4
20260506150528 69 208 0.9 12.2 0.00 0.00 0.00 68 1008.5
20260506150044 70 204 1.7 10.4 0.00 0.00 0.00 67 1008.4
20260506145547 69 136 0.9 8.7 0.00 0.00 0.00 67 1008.5
20260506145105 69 193 0.9 8.7 0.00 0.00 0.00 68 1008.4
20260506144602 69 165 0.9 7.8 0.00 0.00 0.00 68 1008.5
20260506144103 69 212 0.9 8.7 0.00 0.00 0.00 67 1008.6
20260506143516 69 194 0.0 10.4 0.00 0.00 0.00 67 1008.6
20260506143030 69 113 2.6 10.4 0.00 0.00 0.00 67 1008.6
20260506142545 70 111 2.6 7.8 0.00 0.00 0.00 67 1008.6
20260506142100 70 220 1.7 8.7 0.00 0.00 0.00 66 1008.5
20260506141602 70 165 0.9 12.2 0.00 0.00 0.00 67 1008.5
20260506141103 70 150 3.5 12.2 0.00 0.00 0.00 66 1008.6
20260506140520 70 184 1.7 8.7 0.00 0.00 0.00 66 1008.5
20260506140037 70 150 0.0 8.7 0.00 0.00 0.00 67 1008.3
20260506135544 69 221 0.0 11.3 0.00 0.00 0.00 67 1008.2
20260506135059 69 212 2.6 11.3 0.00 0.00 0.00 67 1008.2
20260506134601 69 132 1.7 7.8 0.00 0.00 0.00 67 1008.3
20260506134013 69 106 0.9 10.4 0.00 0.00 0.00 67 1008.3
20260506133531 69 202 1.7 15.6 0.00 0.00 0.00 67 1008.2
20260506133045 69 117 2.6 15.6 0.00 0.00 0.00 67 1008.2
20260506132546 70 160 0.9 12.2 0.00 0.00 0.00 67 1008.3
20260506132049 70 154 1.7 8.7 0.00 0.00 0.00 67 1008.3
20260506131549 70 145 0.0 16.5 0.00 0.00 0.00 68 1008.5
20260506131102 70 177 1.7 13.9 0.00 0.00 0.00 68 1008.7
20260506130518 70 120 3.5 13.9 0.00 0.00 0.00 67 1008.6
20260506130028 69 142 1.7 11.3 0.00 0.00 0.00 69 1008.7
20260506125525 69 165 2.6 12.2 0.00 0.00 0.00 69 1008.7
20260506125040 69 88 0.9 8.7 0.00 0.00 0.00 70 1008.8
20260506124559 69 159 0.0 6.1 0.00 0.00 0.00 70 1008.7
20260506124009 68 109 0.9 13.0 0.00 0.00 0.00 72 1008.7
20260506123522 68 178 0.9 7.0 0.00 0.00 0.00 72 1008.5
20260506123022 68 109 0.0 9.6 0.00 0.00 0.00 72 1008.5
20260506122537 67 168 1.7 11.3 0.00 0.00 0.00 72 1008.6
20260506122053 67 166 0.0 11.3 0.00 0.00 0.00 73 1008.7
20260506121506 66 161 0.9 12.2 0.00 0.00 0.00 74 1008.7
20260506121022 66 134 1.7 8.7 0.00 0.00 0.00 74 1008.7
20260506120538 66 146 0.0 4.3 0.00 0.00 0.00 75 1008.7
20260506120109 66 187 0.0 8.7 0.00 0.00 0.00 75 1008.7
20260506115555 66 146 0.9 8.7 0.00 0.00 0.00 75 1008.8
20260506115056 65 107 0.0 7.0 0.00 0.00 0.00 76 1008.7
20260506114508 65 82 0.9 6.1 0.00 0.00 0.00 76 1008.7
20260506114022 65 159 0.9 7.8 0.00 0.00 0.00 76 1008.8
20260506113538 65 128 0.0 7.8 0.00 0.00 0.00 77 1008.7
20260506113054 65 157 0.9 8.7 0.00 0.00 0.00 77 1008.7
20260506112559 64 119 0.9 10.4 0.00 0.00 0.00 78 1008.7
20260506112007 64 115 0.0 10.4 0.00 0.00 0.00 78 1008.7
20260506111526 64 89 0.0 6.1 0.00 0.00 0.00 79 1008.8
20260506111041 64 125 0.0 6.1 0.00 0.00 0.00 79 1008.9
20260506110554 63 178 0.0 8.7 0.00 0.00 0.00 79 1008.8
20260506110008 63 106 0.9 8.7 0.00 0.00 0.00 79 1008.8
20260506105523 63 177 0.9 5.2 0.00 0.00 0.00 80 1008.8
20260506105039 63 115 0.9 4.3 0.00 0.00 0.00 80 1008.7
20260506104557 63 84 0.9 9.6 0.00 0.00 0.00 80 1008.7
20260506104057 63 115 0.9 9.6 0.00 0.00 0.00 80 1008.8
20260506103509 63 190 0.0 3.5 0.00 0.00 0.00 80 1008.8
20260506103023 63 124 0.0 5.2 0.00 0.00 0.00 80 1008.9
20260506102537 63 181 1.7 5.2 0.00 0.00 0.00 80 1008.9
20260506102052 63 157 0.0 5.2 0.00 0.00 0.00 81 1009.0
20260506101503 63 167 0.0 4.3 0.00 0.00 0.00 81 1008.8
20260506101008 63 91 0.0 4.3 0.00 0.00 0.00 81 1008.8
20260506100520 63 158 1.7 4.3 0.00 0.00 0.00 81 1008.8
20260506100039 63 200 0.0 2.6 0.00 0.00 0.00 81 1008.7
20260506095550 63 171 0.0 4.3 0.00 0.00 0.00 81 1008.7
20260506095002 63 162 0.9 4.3 0.00 0.00 0.00 81 1008.6
20260506094520 63 175 0.0 2.6 0.00 0.00 0.00 81 1008.6
20260506094039 63 85 0.0 2.6 0.00 0.00 0.00 81 1008.6
20260506093550 63 152 0.0 5.2 0.00 0.00 0.00 81 1008.6
20260506093006 63 125 0.9 6.1 0.00 0.00 0.00 81 1008.5
20260506092503 63 156 0.9 7.0 0.00 0.00 0.00 81 1008.4
20260506092019 63 108 1.7 7.0 0.00 0.00 0.00 82 1008.5
20260506091534 63 134 0.0 5.2 0.00 0.00 0.00 82 1008.6
20260506091050 63 77 0.9 6.1 0.00 0.00 0.00 82 1008.7
20260506090503 63 122 1.7 6.1 0.00 0.00 0.00 82 1008.7
20260506090020 63 156 0.0 5.2 0.00 0.00 0.00 82 1008.8
20260506085537 63 99 0.9 5.2 0.00 0.00 0.00 82 1008.7
20260506085053 63 102 0.0 5.2 0.00 0.00 0.00 82 1008.8
20260506084511 63 100 0.0 5.2 0.00 0.00 0.00 82 1008.8
20260506084007 64 82 0.0 4.3 0.00 0.00 0.00 82 1008.9
20260506083523 64 148 0.0 2.6 0.00 0.00 0.00 82 1008.9
20260506083041 64 150 0.0 3.5 0.00 0.00 0.00 82 1008.9
20260506082559 64 138 0.0 3.5 0.00 0.00 0.00 82 1009.0
20260506082012 64 125 0.0 3.5 0.00 0.00 0.00 82 1009.0
20260506081525 64 108 0.0 3.5 0.00 0.00 0.00 82 1009.0
20260506081040 64 143 0.0 3.5 0.00 0.00 0.00 82 1009.0
20260506080558 64 76 0.0 2.6 0.00 0.00 0.00 82 1009.0
20260506073507 64 122 0.0 5.2 0.00 0.00 0.00 81 1008.8
20260506073019 64 186 0.9 6.1 0.00 0.00 0.00 81 1008.9
20260506072535 64 171 0.9 6.1 0.00 0.00 0.00 81 1008.9
20260506072054 64 83 0.0 5.2 0.00 0.00 0.00 81 1008.9
20260506071506 64 119 0.0 5.2 0.00 0.00 0.00 81 1009.0
20260506071003 64 140 0.0 3.5 0.00 0.00 0.00 81 1009.0
20260506070519 64 86 0.0 3.5 0.00 0.00 0.00 81 1009.1
20260506062011 65 86 0.0 0.9 0.00 0.00 0.00 80 1009.1
20260506061524 65 90 0.0 2.6 0.00 0.00 0.00 79 1009.1
20260506061041 65 93 0.0 7.8 0.00 0.00 0.00 79 1009.1
20260506060557 65 107 0.0 7.8 0.00 0.00 0.00 79 1009.1
20260506051102 66 140 0.9 7.0 0.00 0.00 0.00 77 1009.5
20260506050603 66 136 0.0 2.6 0.00 0.00 0.00 77 1009.6
20260506045050 67 162 0.0 5.2 0.00 0.00 0.00 76 1009.6
20260506044556 67 82 0.9 5.2 0.00 0.00 0.00 76 1009.7
20260506044051 67 134 1.7 5.2 0.00 0.00 0.00 76 1009.6
20260506043503 67 123 0.0 3.5 0.00 0.00 0.00 76 1009.7
20260506043018 67 177 0.0 3.5 0.00 0.00 0.00 75 1009.7
20260506042535 67 131 0.0 7.0 0.00 0.00 0.00 75 1009.7
20260506042037 67 104 0.0 6.1 0.00 0.00 0.00 75 1009.5
20260506041605 67 102 1.7 6.1 0.00 0.00 0.00 75 1009.6
20260506041054 67 128 0.0 7.0 0.00 0.00 0.00 75 1009.6
20260506040506 67 190 0.9 7.0 0.00 0.00 0.00 75 1009.5
20260506040021 67 177 0.0 5.2 0.00 0.00 0.00 75 1009.4
20260506035537 67 79 0.9 7.0 0.00 0.00 0.00 74 1009.4
20260506035053 67 151 0.9 13.9 0.00 0.00 0.00 74 1009.5
20260506034507 67 126 0.0 6.1 0.00 0.00 0.00 74 1009.5
20260506034023 67 148 1.7 9.6 0.00 0.00 0.00 74 1009.5
20260506033539 67 126 2.6 9.6 0.00 0.00 0.00 74 1009.6
20260506033056 67 124 0.0 5.2 0.00 0.00 0.00 73 1009.5
20260506032556 67 130 0.0 7.0 0.00 0.00 0.00 73 1009.6
20260506032056 67 154 2.6 7.0 0.00 0.00 0.00 73 1009.7
20260506031509 68 162 0.0 11.3 0.00 0.00 0.00 73 1009.7
20260506031025 68 145 0.0 11.3 0.00 0.00 0.00 72 1009.7
20260506030543 68 89 0.0 10.4 0.00 0.00 0.00 72 1009.8
20260506030042 68 112 0.0 7.8 0.00 0.00 0.00 72 1009.7
20260506025559 68 135 0.0 7.0 0.00 0.00 0.00 71 1009.7
20260506025101 68 192 1.7 7.0 0.00 0.00 0.00 71 1009.6
20260506024613 68 158 0.0 6.1 0.00 0.00 0.00 71 1009.7
20260506024015 68 120 0.9 6.1 0.00 0.00 0.00 70 1009.7
20260506023533 68 115 1.7 9.6 0.00 0.00 0.00 70 1009.7
20260506023053 69 115 0.9 4.3 0.00 0.00 0.00 69 1009.8
20260506022546 69 167 0.0 6.1 0.00 0.00 0.00 69 1009.7
20260506022048 69 98 0.0 9.6 0.00 0.00 0.00 68 1009.7
20260506021502 69 166 2.6 9.6 0.00 0.00 0.00 68 1009.7
20260506021017 69 96 0.9 6.1 0.00 0.00 0.00 67 1009.7
20260506020534 69 98 0.9 6.1 0.00 0.00 0.00 67 1009.6
20260506020116 69 153 1.7 5.2 0.00 0.00 0.00 66 1009.8
20260506015502 70 125 0.0 11.3 0.00 0.00 0.00 66 1009.6
20260506015005 70 101 0.0 9.6 0.00 0.00 0.00 65 1009.5
20260506014507 70 118 0.0 9.6 0.00 0.00 0.00 64 1009.6
20260506014020 70 114 0.9 5.2 0.00 0.00 0.00 64 1009.4
20260506013534 70 130 0.0 6.1 0.00 0.00 0.00 63 1009.4
20260506013050 70 97 0.0 6.1 0.00 0.00 0.00 63 1009.4
20260506012504 70 133 0.9 6.1 0.00 0.00 0.00 63 1009.3
20260506012021 71 147 0.0 6.1 0.00 0.00 0.00 62 1009.3
20260506011539 71 127 0.0 2.6 0.00 0.00 0.00 62 1009.2
20260506011055 71 104 0.0 5.2 0.00 0.00 0.00 62 1009.2
20260506010553 71 76 0.9 5.2 0.00 0.00 0.00 62 1009.1
20260506010057 71 124 0.9 5.2 0.00 0.00 0.00 62 1009.1
20260506005512 71 121 0.0 5.2 0.00 0.00 0.00 62 1009.1
20260506005024 71 107 0.0 3.5 0.00 0.00 0.00 62 1009.1
20260506004543 71 69 0.0 3.5 0.00 0.00 0.00 62 1009.0
20260506004041 71 106 0.0 6.1 0.00 0.00 0.00 62 1008.9
20260506003558 71 123 0.9 6.1 0.00 0.00 0.00 62 1008.8
20260506003059 71 130 0.0 5.2 0.00 0.00 0.00 62 1008.8
20260506002512 72 92 0.0 9.6 0.00 0.00 0.00 62 1008.8
20260506002030 72 88 0.0 9.6 0.00 0.00 0.00 61 1008.8
20260506001556 72 90 0.0 3.5 0.00 0.00 0.00 61 1008.8
20260506001103 72 102 0.0 7.8 0.00 0.00 0.00 61 1008.8
20260506000516 73 148 0.9 8.7 0.00 0.00 0.00 60 1008.7
20260506000050 73 124 0.9 13.9 0.00 0.00 0.00 59 1008.7
20260505235547 73 175 1.7 13.9 0.00 0.00 0.00 59 1008.6
20260505235104 73 116 0.9 5.2 0.00 0.00 0.00 58 1008.7
20260505234502 74 100 0.0 8.7 0.00 0.00 0.00 57 1008.6
20260505234001 74 120 0.0 7.8 0.00 0.00 0.00 56 1008.6
20260505233518 74 89 0.0 1.7 0.00 0.00 0.00 55 1008.4
20260505233033 75 118 0.0 3.5 0.00 0.00 0.00 54 1008.3
20260505232549 75 107 0.9 5.2 0.00 0.00 0.00 53 1008.2
20260505232104 75 84 0.0 12.2 0.00 0.00 0.00 52 1008.2
20260505231516 76 134 0.9 12.2 0.00 0.00 0.00 51 1008.2
20260505231033 76 111 0.9 10.4 0.00 0.00 0.00 50 1008.1
20260505230549 77 100 0.9 7.8 0.00 0.00 0.00 49 1008.0
20260505230001 78 118 0.9 12.2 0.00 0.00 0.00 47 1008.0
20260505225502 78 88 2.6 11.3 0.00 0.00 0.00 46 1008.1
20260505225020 79 96 0.0 11.3 0.00 0.00 0.00 45 1007.9
20260505224543 79 146 0.9 9.6 0.00 0.00 0.00 44 1007.9
20260505224052 80 172 3.5 10.4 0.00 0.00 0.00 42 1007.9
20260505223503 80 178 1.7 11.3 0.00 0.00 0.00 42 1007.8
20260505223018 80 165 2.6 13.0 0.00 0.00 0.00 41 1007.9
20260505222537 80 132 3.5 16.5 0.00 0.00 0.00 41 1007.8
20260505222052 80 96 3.5 18.2 0.00 0.00 0.00 41 1007.8
20260505221558 80 68 0.9 18.2 0.00 0.00 0.00 42 1007.6
20260505221053 80 107 3.5 20.0 0.00 0.00 0.00 42 1007.7
20260505220506 81 148 3.5 20.0 0.00 0.00 0.00 41 1007.9
20260505220023 81 138 3.5 19.1 0.00 0.00 0.00 41 1007.7
20260505215538 81 198 3.5 19.1 0.00 0.00 0.00 40 1007.6
20260505215039 81 141 6.1 20.0 0.00 0.00 0.00 40 1007.6
20260505214605 81 132 2.6 19.1 0.00 0.00 0.00 41 1007.5
20260505214056 81 169 1.7 19.1 0.00 0.00 0.00 40 1007.5
20260505213505 82 157 3.5 14.8 0.00 0.00 0.00 39 1007.4
20260505213027 82 108 2.6 11.3 0.00 0.00 0.00 38 1007.5
20260505212540 82 143 3.5 10.4 0.00 0.00 0.00 38 1007.5
20260505212057 82 156 2.6 19.1 0.00 0.00 0.00 39 1007.4
20260505211631 82 153 3.5 19.1 0.00 0.00 0.00 39 1007.3
20260505211101 82 132 3.5 12.2 0.00 0.00 0.00 39 1007.2
20260505210559 82 185 2.6 14.8 0.00 0.00 0.00 38 1007.1
20260505210013 82 132 4.3 20.0 0.00 0.00 0.00 38 1007.1
20260505205531 82 190 2.6 14.8 0.00 0.00 0.00 38 1007.0
20260505205045 82 182 3.5 14.8 0.00 0.00 0.00 38 1007.0
20260505204610 82 175 3.5 20.9 0.00 0.00 0.00 39 1007.0
20260505204100 82 182 3.5 20.9 0.00 0.00 0.00 38 1007.1
20260505203603 83 149 1.7 21.7 0.00 0.00 0.00 38 1007.0
20260505203102 83 156 4.3 21.7 0.00 0.00 0.00 38 1007.0
20260505202516 83 117 1.7 19.1 0.00 0.00 0.00 39 1007.0